SCP
0 0 0 0 0 0 0 0 0 0 0 0 0 0 0 0 0 0 0 0 0 0 0 0 0 0 0 0 0 0 0 0 0 0 0 0 0 0 0 0 0 0 0 0 1 1 1 1 1
0 0 0 0 0 0 0 0 0 0 0 0 0 0 0 0 0 0 0 0 0 0 0 0 0 0 0 0 0 0 0 0 0 0 0 0 0 0 0 0 0 0 0 0 0 0 1 1 1
0 0 0 0 0 0 0 0 0 0 0 0 0 0 0 0 0 0 0 0 0 0 0 0 0 0 0 0 0 0 0 0 0 0 0 0 0 0 0 0 0 0 0 0 0 0 0 0 1
0 0 0 0 0 0 0 0 0 0 0 0 0 0 0 0 0 0 0 0 0 0 0 0 0 0 0 0 0 0 0 0 0 0 0 0 0 0 0 0 0 0 0 0 0 0 0 0 0
0 0 0 0 0 0 0 0 0 0 0 0 0 0 0 0 0 0 0 0 0 0 0 0 0 0 0 0 0 0 0 0 0 0 0 0 0 0 0 0 0 0 0 0 0 0 0 0 0
0 0 0 0 0 0 0 0 0 0 0 0 0 0 0 0 0 0 0 0 0 0 0 0 0 0 0 0 0 0 0 0 0 0 0 0 0 0 0 0 0 0 0 0 0 0 0 0 0
0 0 0 0 0 0 0 0 0 0 0 0 0 0 0 0 0 0 0 0 0 0 0 0 0 0 0 0 0 0 0 0 0 0 0 0 0 0 0 0 0 0 0 0 0 0 0 0 0
0 0 0 0 0 0 0 0 0 0 0 0 0 0 0 0 0 0 0 0 0 0 0 0 0 0 0 0 0 0 0 0 0 0 0 0 0 0 0 0 0 0 0 0 0 0 0 0 0
-0 0 0 0 0 0 0 0 0 0 0 0 0 0 0 0 0 0 0 0 0 0 -0 -0 -0 0 0 0 0 0 0 0 0 0 0 0 0 0 0 0 0 0 0 0 0 0 0 0 0
0 0 0 0 0 0 0 0 0 0 0 0 0 0 0 0 0 0 0 0 0 0 -0 -0 -0 0 0 0 0 0 0 0 0 0 0 0 0 0 0 0 0 0 0 0 0 0 0 0 0
0 0 0 0 0 0 0 0 0 0 0 0 0 0 0 0 0 0 0 0 0 0 -0 -0 -0 -0 0 0 0 0 0 0 0 0 0 0 0 0 0 0 0 0 0 0 0 0 0 0 0
0 0 0 0 0 0 0 0 0 0 0 0 0 0 0 0 0 0 0 0 0 -0 -0 -0 -0 0 0 0 0 0 0 0 0 0 0 0 0 -0 -0 -0 0 0 0 0 0 0 0 0 0
0 0 0 0 0 0 0 0 0 0 0 0 0 0 0 0 0 0 0 0 0 -0 -0 -0 0 0 0 0 0 0 0 0 0 0 0 0 0 0 0 0 0 0 0 0 0 0 0 0 0
0 0 0 0 0 0 0 0 0 0 0 0 0 0 0 0 0 0 0 0 0 -0 -0 0 0 0 0 0 0 0 0 0 0 0 0 0 0 0 0 0 0 0 0 0 0 0 0 0 0
0 0 0 0 0 0 0 0 0 0 0 0 0 0 0 0 0 0 0 0 0 0 0 0 0 0 0 0 0 0 0 0 0 0 0 0 0 0 0 0 0 0 0 0 0 0 0 0 0
0 0 0 0 0 0 0 0 0 0 0 0 0 0 0 0 0 0 0 0 0 0 0 0 0 0 0 0 0 0 0 0 0 0 0 0 0 0 0 0 0 0 0 0 0 0 0 0 0
0 0 0 0 0 0 0 0 0 0 0 0 0 0 0 0 0 0 0 0 0 0 0 0 0 0 0 0 0 0 0 0 0 0 0 0 0 0 0 0 0 0 0 0 0 0 0 0 0
0 0 0 0 0 0 0 0 0 0 0 0 0 0 0 0 0 0 0 0 0 0 0 0 0 0 0 0 0 0 0 0 0 0 0 0 0 0 0 0 0 0 0 0 0 0 0 0 0
0 0 0 0 0 0 0 0 0 0 0 0 0 0 0 0 0 0 0 0 0 0 0 0 0 0 0 0 0 0 0 0 0 0 0 0 0 0 0 0 0 0 0 0 0 0 0 0 0
0 0 0 0 0 0 0 0 0 0 0 0 0 0 0 0 0 0 0 0 0 0 0 0 0 0 0 0 0 0 0 0 0 0 0 0 0 0 0 0 0 0 0 0 0 0 0 0 0
0 0 0 0 0 0 0 0 0 0 0 0 0 0 0 0 0 0 0 0 0 0 0 0 0 0 0 0 0 0 0 0 0 0 0 0 0 0 0 0 0 0 0 0 0 0 0 0 0
0 0 0 0 0 0 0 0 0 0 0 0 0 0 0 0 0 0 0 0 0 0 0 0 0 0 0 0 0 0 0 0 0 0 0 0 0 0 0 0 0 0 0 0 0 0 0 0 0
0 0 0 0 0 0 0 0 0 0 0 0 0 0 0 0 0 0 0 0 0 0 0 0 0 0 0 0 0 0 0 0 0 0 0 0 0 0 0 0 0 0 0 0 0 0 0 0 0
0 0 0 0 0 0 0 0 0 0 0 0 0 0 0 0 0 0 0 0 0 0 0 0 0 0 0 0 0 0 0 0 0 0 0 0 0 0 0 0 0 0 0 0 0 0 0 0 0
0 0 0 0 0 0 0 0 0 0 0 0 0 0 0 0 0 0 0 0 0 0 0 0 0 0 0 0 0 0 0 0 0 0 0 0 0 0 0 0 0 0 0 0 0 0 0 0 0
0 0 0 0 0 0 0 0 0 0 0 0 0 0 0 0 0 0 0 0 0 0 0 0 0 0 0 0 0 0 0 0 0 0 0 0 0 0 0 0 0 0 0 0 0 0 0 0 0
0 0 0 0 0 0 0 0 0 0 0 0 0 0 0 0 0 0 0 0 0 0 0 0 0 0 0 0 0 0 0 0 0 0 0 0 0 0 0 0 0 0 0 0 0 0 0 0 0
0 0 0 0 0 0 0 0 0 0 0 0 0 0 0 0 0 0 0 0 0 0 0 0 0 0 0 0 0 0 0 0 0 0 0 0 0 0 0 0 0 0 0 0 0 0 0 0 0
0 0 0 0 0 0 0 0 0 0 0 0 0 0 0 0 0 0 0 0 0 0 0 0 0 0 0 0 0 0 0 0 0 0 0 0 0 0 0 0 0 0 0 0 0 0 0 0 0
0 0 0 0 0 0 0 0 0 0 0 0 0 0 0 0 0 0 0 0 0 0 0 0 0 0 0 0 0 0 0 0 0 0 0 0 0 0 0 0 0 0 0 0 0 0 0 0 0
Wind_Speed
6 4 4 6 11 12 7 4 3 4 5 2 3 7 8 7 7 7 0 11 13 13 15 18 25 26 26 26 26 26 26 26 26 26 26 27 27 27 27 27 27 27 26 26 26 25 25 25 24
3 4 8 9 10 8 4 4 4 3 6 4 4 6 7 7 5 6 5 10 11 12 14 17 25 26 26 26 26 26 26 26 26 26 26 26 27 27 27 27 27 27 26 26 26 26 25 25 25
5 9 9 10 9 5 4 1 4 5 4 3 5 6 6 5 5 5 5 7 8 11 13 18 26 26 26 26 26 26 26 26 26 26 26 26 26 27 27 27 27 27 27 26 26 26 26 25 25
6 8 10 12 10 3 2 1 2 6 5 6 5 7 6 7 4 4 4 5 7 10 12 17 26 26 26 26 26 26 26 26 26 26 26 26 27 27 26 27 27 27 27 26 26 26 26 26 26
7 8 12 9 5 3 2 2 2 3 3 4 6 7 5 4 5 4 3 6 9 10 11 16 26 26 25 26 26 26 26 26 26 26 26 26 27 27 26 27 27 27 27 27 27 26 26 26 26
8 8 9 6 5 4 2 2 4 6 5 5 7 6 4 2 3 3 4 6 8 9 11 14 24 25 25 25 26 25 25 25 25 26 26 26 27 27 26 27 27 26 27 26 27 27 27 26 26
8 9 7 7 6 4 3 3 4 4 4 3 5 6 5 2 2 2 4 5 7 8 11 12 12 16 22 23 25 25 24 25 25 26 26 26 27 27 26 26 26 26 26 26 27 27 27 26 25
7 9 7 5 6 4 4 4 4 3 4 3 4 8 6 5 4 2 4 5 7 8 10 10 10 11 11 11 22 24 23 24 24 25 26 25 25 24 25 24 26 26 26 26 27 27 27 26 25
6 9 4 5 7 6 4 5 4 4 6 5 4 4 7 7 4 2 3 7 8 10 9 10 10 11 11 9 15 17 18 20 20 18 24 20 11 12 14 21 25 26 26 27 27 27 26 25 22
9 7 3 1 5 7 5 5 6 5 6 4 5 5 6 5 3 4 9 10 10 10 9 8 9 9 9 9 7 7 8 9 9 9 11 9 9 10 15 20 24 25 25 25 26 26 23 18 12
9 7 4 4 5 7 6 5 4 9 4 6 8 8 6 5 4 7 7 6 6 5 6 7 8 7 8 7 6 5 5 6 7 9 10 9 7 7 8 7 10 12 16 12 16 15 11 11 11
9 6 5 4 4 6 5 5 4 2 4 7 9 9 6 6 6 6 6 5 4 5 6 5 6 6 6 6 5 5 5 5 6 7 9 8 6 7 8 7 8 8 8 10 10 9 12 12 13
7 4 4 7 10 7 7 6 5 3 6 8 8 7 7 7 6 5 4 4 5 6 6 5 5 6 6 5 5 6 5 5 6 6 7 8 6 7 8 7 7 7 8 9 10 10 12 13 13
6 7 6 6 6 4 7 4 5 3 6 8 7 6 6 6 5 4 4 4 4 4 6 5 4 6 6 5 5 4 5 5 5 5 8 9 7 7 8 7 7 7 8 9 9 11 11 11 11
5 7 5 3 4 3 6 3 4 7 7 7 6 5 5 5 5 4 3 2 2 3 5 7 5 6 6 6 7 6 5 6 5 6 7 8 8 8 8 7 7 8 9 10 9 10 9 11 11
5 5 2 1 3 4 3 3 5 8 9 7 6 5 5 4 4 4 3 1 2 4 5 6 7 7 6 6 6 5 5 6 5 6 6 8 9 9 7 6 6 8 8 8 9 8 10 10 11
3 1 1 2 4 4 4 4 4 8 9 8 7 6 5 4 3 3 2 1 3 4 5 6 6 6 7 7 6 6 5 5 5 5 5 7 9 9 7 6 6 8 7 7 9 9 9 11 11
2 2 2 4 5 5 5 4 4 8 9 8 7 6 5 5 4 3 1 2 3 4 5 5 5 6 6 5 5 4 5 5 4 5 5 8 8 9 8 6 7 7 7 7 8 10 9 9 10
2 3 2 1 4 5 6 5 5 7 7 8 7 7 6 5 3 3 1 2 3 4 5 5 7 7 6 5 6 6 6 6 5 5 7 9 9 9 8 7 7 7 7 8 9 9 10 8 9
2 2 1 0 2 3 2 4 3 6 7 8 9 9 7 5 3 3 1 1 3 4 5 6 7 7 7 5 5 4 6 5 5 6 7 8 9 10 9 8 8 7 7 8 9 9 7 7 7
1 2 2 2 2 2 1 4 3 3 3 4 5 6 6 7 6 3 2 1 3 4 6 7 7 7 7 7 5 6 4 4 4 5 5 7 10 10 9 9 8 8 6 7 9 8 8 9 7
0 1 2 3 1 3 0 6 5 4 3 5 6 6 6 5 4 3 1 1 2 4 5 6 7 7 7 7 7 8 8 7 7 6 7 9 9 10 10 10 9 8 8 8 9 8 8 8 8
1 1 1 2 2 1 0 2 7 2 5 8 8 7 6 5 4 3 1 1 2 4 5 5 6 6 7 7 7 7 6 6 7 8 8 8 7 8 10 10 8 8 8 8 9 9 8 7 8
1 4 4 4 3 3 3 4 8 6 8 6 8 7 7 6 4 3 2 2 3 4 5 5 6 7 7 8 8 7 8 9 11 11 9 8 7 6 9 11 8 9 9 9 10 8 9 8 9
4 4 5 6 4 5 2 3 10 3 5 6 9 9 7 6 4 2 1 2 3 5 5 6 7 8 8 8 8 8 8 8 9 11 10 10 9 8 10 11 9 9 9 10 9 9 9 9 9
2 3 4 2 5 7 2 7 7 0 1 1 5 7 7 5 4 2 1 1 3 5 5 6 7 8 8 8 8 8 7 6 7 9 10 10 9 10 11 11 12 12 12 12 10 9 9 8 8
2 2 2 4 1 5 7 8 5 2 1 2 5 7 7 6 4 3 1 1 3 4 5 6 7 8 8 9 9 8 8 8 9 10 9 8 9 11 12 13 13 13 13 12 11 8 9 9 9
2 6 4 3 2 6 8 7 6 6 8 7 7 8 7 5 4 3 1 1 2 4 5 6 6 7 8 8 8 9 9 9 9 9 10 11 11 12 13 13 14 14 14 13 11 10 9 10 10
3 3 4 3 3 3 6 10 4 6 8 11 11 9 8 7 5 3 1 1 3 4 5 6 6 7 7 8 8 8 9 9 9 9 10 11 11 12 13 14 15 15 15 13 12 11 12 11 11
2 3 6 3 3 4 3 12 1 2 4 7 9 8 7 6 5 3 1 1 3 4 5 6 6 7 7 7 8 8 9 9 9 10 11 11 12 12 13 14 15 15 16 14 14 13 12 11 11
Wind_Direction
9 54 63 55 60 58 55 19 61 85 76 55 51 82 92 72 83 121 95 7 2 3 360 3 15 18 19 19 20 20 19 18 18 17 16 15 13 12 11 9 6 5 3 2 0 359 357 355 354
46 65 52 56 72 73 26 1 56 75 127 130 64 67 71 71 75 79 21 0 2 8 5 7 18 19 19 19 19 19 18 17 16 16 14 13 11 9 9 6 4 3 1 360 358 357 355 353 351
74 59 66 64 74 107 135 41 100 87 91 94 74 54 63 42 47 56 14 356 7 17 10 7 20 19 19 19 18 18 17 16 15 14 13 12 10 8 7 5 2 0 359 358 356 354 353 351 350
70 55 62 65 78 55 108 180 122 121 68 54 81 57 53 10 48 72 25 7 26 24 13 10 21 19 18 18 18 17 16 15 15 13 12 10 8 6 6 3 0 359 357 356 354 352 350 349 347
59 71 69 66 74 69 33 19 116 95 64 58 84 91 73 29 54 73 42 34 39 32 22 16 21 19 17 17 17 15 15 14 14 13 11 10 7 4 3 1 358 357 355 353 352 350 348 346 345
57 61 76 95 112 134 89 42 84 83 95 94 97 99 80 48 57 50 44 45 41 36 29 23 19 19 16 16 16 14 15 14 13 12 10 8 5 2 1 359 355 355 354 352 350 348 346 345 344
84 75 91 119 132 143 135 80 74 98 93 94 114 99 126 139 127 80 51 52 50 41 34 25 18 16 13 14 16 13 15 14 14 11 9 8 5 1 360 357 353 354 352 352 349 347 345 344 343
100 93 90 125 138 139 129 95 79 80 102 42 90 128 160 177 157 108 58 48 52 46 37 25 18 15 7 5 15 13 15 14 14 11 8 7 3 359 358 354 352 354 352 351 348 347 345 344 343
74 74 111 166 159 145 132 106 82 53 81 43 51 116 140 142 142 97 60 44 39 38 35 24 18 15 6 7 15 10 13 11 13 8 6 4 355 348 355 349 352 353 351 351 346 346 345 344 341
54 90 120 89 144 134 115 113 137 100 77 69 63 78 105 119 135 81 54 39 29 22 24 24 14 10 5 8 7 2 5 1 2 1 359 354 350 348 356 347 351 352 349 349 345 344 345 342 334
59 94 103 64 93 108 106 107 118 123 126 171 161 154 142 134 108 77 64 48 28 12 16 20 12 3 4 4 4 7 358 356 357 358 356 351 347 346 346 340 346 345 346 344 341 339 337 332 329
81 56 84 99 84 88 104 109 100 132 167 157 153 146 145 129 96 84 75 51 23 15 8 10 7 358 1 1 355 8 357 353 354 351 352 351 347 345 342 339 340 343 341 337 336 331 328 327 324
76 88 58 77 79 83 85 88 102 81 105 114 123 127 134 119 103 93 88 63 31 12 353 351 8 2 358 0 355 8 350 349 343 345 349 350 345 341 338 335 338 338 337 336 333 330 326 326 323
91 89 89 70 74 76 104 98 101 145 127 125 133 137 134 124 121 105 78 51 23 357 346 340 20 4 359 2 353 352 346 342 340 343 345 347 344 339 338 334 337 339 337 333 329 322 325 322 320
95 83 71 79 88 113 113 112 181 162 142 142 148 145 132 120 114 111 100 67 6 349 345 345 16 8 0 359 355 354 341 341 340 341 339 341 341 338 337 331 335 336 332 329 328 321 327 322 320
77 82 90 175 121 146 158 244 181 154 149 162 167 159 141 123 117 121 111 69 9 355 344 340 359 360 358 357 349 339 335 335 331 330 330 334 336 335 333 328 332 330 330 330 326 331 330 323 320
51 91 220 191 181 156 189 233 169 163 163 175 180 178 161 142 134 134 111 33 3 347 330 331 339 354 354 349 340 329 326 324 321 321 322 330 332 332 329 321 326 328 329 328 327 333 324 322 321
226 222 239 227 197 162 203 230 174 177 176 184 186 188 184 177 175 158 128 7 350 334 320 325 340 352 349 343 335 327 325 320 318 317 321 329 329 329 325 321 325 326 327 326 325 324 321 319 318
160 185 236 254 159 171 215 230 201 183 180 185 194 198 199 189 166 152 139 350 336 329 331 340 354 353 354 350 346 336 332 324 321 322 328 326 325 325 320 326 321 322 323 321 321 322 320 322 324
149 158 201 90 115 167 225 255 213 185 196 195 195 199 195 177 175 188 203 335 329 328 336 350 355 348 347 340 325 311 311 305 307 312 313 317 322 323 327 325 320 317 318 317 320 320 318 321 333
88 168 212 211 83 77 9 299 186 185 176 184 197 197 187 186 189 201 229 303 329 336 343 351 342 339 335 332 326 325 308 301 314 320 315 321 321 320 317 317 315 314 313 313 314 310 320 320 319
269 216 176 151 124 293 0 298 251 196 193 200 200 193 189 182 176 190 216 310 340 339 342 342 335 331 330 334 336 337 342 332 325 321 317 318 317 316 317 317 313 311 312 308 308 321 309 309 315
245 55 122 149 156 324 272 246 286 165 231 227 211 200 189 178 171 174 156 39 5 348 340 334 330 328 330 335 334 331 324 312 315 317 315 315 313 311 315 316 312 312 310 304 302 304 300 301 300
105 80 67 63 75 299 222 188 276 212 215 217 200 192 182 171 163 144 94 40 357 344 338 335 334 330 332 333 330 325 319 319 324 326 323 323 319 313 312 317 313 310 307 304 302 297 296 295 293
53 64 14 354 353 270 182 217 256 232 215 204 190 184 173 166 158 147 80 0 340 339 339 338 338 332 329 329 326 320 316 316 319 323 325 325 324 322 316 316 313 310 305 303 300 299 296 291 289
37 103 124 269 276 296 289 247 260 162 27 155 155 152 154 161 159 154 139 337 327 336 340 337 334 328 326 326 323 315 316 321 319 319 320 319 318 315 310 315 312 308 305 305 299 296 292 291 289
102 100 141 145 301 289 282 281 296 121 104 125 137 148 168 170 164 159 153 335 335 337 334 330 327 324 323 321 320 317 325 324 321 319 316 315 315 317 320 315 312 309 306 302 297 290 288 287 285
77 143 99 108 311 296 295 283 264 225 225 207 192 187 184 173 167 162 173 321 332 331 324 325 323 318 313 317 322 334 326 321 320 319 319 319 318 317 317 317 315 313 310 306 301 295 289 288 286
129 108 108 114 159 210 291 279 228 220 210 204 202 190 181 177 175 177 200 312 332 329 325 323 320 316 316 319 321 323 321 321 321 321 320 320 318 320 321 319 318 316 313 310 304 297 293 289 288
172 184 154 167 226 194 231 271 333 244 224 194 185 176 171 168 165 169 185 329 331 324 320 318 315 314 314 317 321 322 321 322 323 322 321 322 322 322 322 322 321 321 321 317 311 302 299 293 289